Regional Weather Roundup
Issued by NWS Northern Indiana

Home | Current Version | Previous Version | Text Only | Print | Product List | Glossary Off
Versions: 1 2 3 4 5 6 7 8 9 10 11 12 13 14 15 16 17 18 19 20 21 22 23 24 25 26 27 28 29 30 31 32 33 34 35 36 37 38 39 40 41 42 43 44 45 46 47 48 49 50

000
ASUS43 KIWX 280910
RWRIWX

KIWX WEATHER ROUNDUP
NATIONAL WEATHER SERVICE NORTHERN INDIANA
500 AM EDT TUE APR 28 2015

NOTE: "FAIR" INDICATES FEW OR NO CLOUDS BELOW 12,000 FEET WITH NO
SIGNIFICANT WEATHER AND/OR OBSTRUCTIONS TO VISIBILITY.

* THESE STATIONS ARE NOT UNDER NWS QUALITY CONTROL. THEY ALSO MAY NOT
  REPORT WEATHER SUCH AS PRECIPITATION OR FOG.

INZ001>027-281000-
NORTHERN INDIANA

CITY           SKY/WX    TMP DP  RH WIND       PRES   REMARKS
GARY*            N/A     35  32  90 W3        30.14S FOG
VALPARAISO     CLEAR     35  34  96 CALM      30.13S
MICHIGAN CITY* CLEAR     32  32 100 CALM      30.14R FOG
LAPORTE*       PTCLDY    37  37 100 NW3       30.13S
KNOX*          CLEAR     32  28  86 CALM      30.12S
SOUTH BEND     CLEAR     37  34  89 NW3       30.13R
GOSHEN         CLEAR     32  30  92 CALM      30.11R FOG
MONTICELLO*    CLEAR     33  32  96 NW3       30.12R
LOGANSPORT*    CLEAR     34  32  93 CALM      30.12R
ROCHESTER*     CLEAR     36  36 100 CALM      30.12R
WARSAW*        CLEAR     32  32 100 CALM      30.11R FOG
ANGOLA*        CLEAR     32  30  93 CALM      30.10S
FORT WAYNE     CLEAR     32  30  92 CALM      30.11R
HUNTINGTON*    CLEAR     34  33  94 CALM      30.10S
PERU/GRISSOM   CLEAR     37  33  86 W2        30.10R
MARION*        CLEAR     35  33  91 CALM      30.11R

$$
INZ028>050-281000-
CENTRAL INDIANA

CITY           SKY/WX    TMP DP  RH WIND       PRES   REMARKS
LAFAYETTE      CLEAR     37  34  89 CALM      30.13R
KOKOMO*        CLEAR     34  30  86 SE3       30.11R
MUNCIE*        CLEAR     36  33  89 CALM      30.10R
INDIANAPOLIS   CLEAR     42  34  73 VRB3      30.09R

$$
MIZ043>046-050>051-056>058-064>065-071>073-077>080-281000-
SOUTHWEST LOWER MICHIGAN

CITY           SKY/WX    TMP DP  RH WIND       PRES   REMARKS
BATTLE CREEK   CLEAR     34  30  85 CALM      30.11R
BENTON HARBOR  CLEAR     31  30  96 CALM      30.12R
COLDWATER*     CLEAR     32  31  97 CALM      30.10S
HILLSDALE*     CLEAR     34  33  96 E3        30.10R
HOLLAND        CLEAR     37  32  82 CALM      30.12R
GRAND RAPIDS   CLEAR     37  32  82 CALM      30.11R
KALAMAZOO      CLEAR     36  32  85 CALM      30.11R
STURGIS*       CLEAR     34  34 100 CALM      30.10S
THREE RIVERS*  FAIR      32  31  95 CALM      30.11R

$$
OHZ001>008-015>018-024>025-281000-
NORTHWEST OHIO

CITY           SKY/WX    TMP DP  RH WIND       PRES   REMARKS
WAUSEON*       FAIR      34  32  93 CALM      30.11R
DEFIANCE       CLEAR     33  31  92 CALM      30.11R
FINDLAY        CLEAR     35  31  85 CALM      30.09R
TOLEDO EXPRESS CLEAR     35  32  88 CALM      30.11R
TOLEDO METCALF CLEAR     34  30  85 W3        30.11R
LIMA           CLEAR     34  31  88 CALM      30.09R

$$
AND FOR LAKE MICHIGAN COASTAL AND OPEN LAKE BUOY OBSERVATIONS

STATION/POSITION TEMP    WIND        PRES    VSBY  WAVE
                 AIR SEA DIR/SP/G                  HT/PER
                 (F)     (DEG/KT/KT) (MB)    (MI)  (FT/S)
CALUMET HARBOR    41     280/  1/  2   N/A
MICHIGAN CITY     40     310/  4/  5   N/A
BURNS HARBOR      42     340/  3/  5 1021.0R
SAINT JOSEPH      40     240/  3/  5 1021.0R
MICHIGAN CITY     40 46  350/  4/  6   N/A           2/ 5

$$
&&



USA.gov is the U.S. government's official web portal to all federal, state and local government web resources and services.